FW3031 Weather Reports


time (UTC)temp
C
wind
direction
speed
KPH
gust
KPH
rain 1hr
cm
rain 24hr
cm
rain mn
cm
humidity
%
barometer
mb
20200229091059 22 131 1.6 19.3 0.00 0.00 0.00 35 1015.3
20200229090549 23 110 8.0 19.3 0.00 0.00 0.00 35 1015.2
20200229090140 23 148 6.4 14.5 0.00 0.00 0.00 34 1015.3
20200229085559 23 24 0.0 19.3 0.00 0.00 0.00 35 1015.3
20200229085047 23 128 3.2 19.3 0.00 0.00 0.00 35 1015.2
20200229084645 23 128 0.0 14.5 0.00 0.00 0.00 35 1015.3
20200229084052 23 158 4.8 16.1 0.00 0.00 0.00 35 1015.3
20200229083545 23 152 6.4 16.1 0.00 0.00 0.00 35 1015.3
20200229083048 23 142 3.2 17.7 0.00 0.00 0.00 35 1015.4
20200229082544 23 138 6.4 17.7 0.00 0.00 0.00 35 1015.3
20200229082044 23 134 3.2 9.7 0.00 0.00 0.00 35 1015.5
20200229081648 23 153 0.0 6.4 0.00 0.00 0.00 36 1015.5
20200229081107 23 97 0.0 9.7 0.00 0.00 0.00 35 1015.4
20200229080541 23 160 0.0 9.7 0.00 0.00 0.00 35 1015.5
20200229080047 23 147 1.6 11.3 0.00 0.00 0.00 35 1015.5
20200229075540 23 143 1.6 14.5 0.00 0.00 0.00 34 1015.5
20200229075040 23 154 6.4 14.5 0.00 0.00 0.00 33 1015.5
20200229074614 24 140 1.6 14.5 0.00 0.00 0.00 33 1015.6
20200229074053 24 72 3.2 9.7 0.00 0.00 0.00 33 1015.5
20200229073537 24 200 1.6 11.3 0.00 0.00 0.00 33 1015.6
20200229073140 24 148 3.2 14.5 0.00 0.00 0.00 33 1015.6
20200229072537 24 139 0.0 14.5 0.00 0.00 0.00 33 1015.6
20200229072039 24 44 0.0 9.7 0.00 0.00 0.00 34 1015.6
20200229071626 24 158 1.6 17.7 0.00 0.00 0.00 34 1015.7
20200229071036 24 138 0.0 16.1 0.00 0.00 0.00 34 1015.7
20200229070535 24 169 1.6 16.1 0.00 0.00 0.00 34 1015.7
20200229070143 24 129 1.6 9.7 0.00 0.00 0.00 34 1015.7
20200229065537 24 133 0.0 11.3 0.00 0.00 0.00 35 1015.7
20200229065035 24 82 3.2 16.1 0.00 0.00 0.00 35 1015.7
20200229064551 24 187 4.8 14.5 0.00 0.00 0.00 35 1015.6
20200229064033 24 196 1.6 12.9 0.00 0.00 0.00 35 1015.7
20200229063531 24 133 3.2 12.9 0.00 0.00 0.00 36 1015.8
20200229063041 24 138 3.2 12.9 0.00 0.00 0.00 35 1015.7
20200229062545 25 164 4.8 11.3 0.00 0.00 0.00 35 1015.7
20200229062029 25 134 1.6 16.1 0.00 0.00 0.00 34 1015.6
20200229061559 25 122 4.8 16.1 0.00 0.00 0.00 34 1015.6
20200229061033 25 160 4.8 16.1 0.00 0.00 0.00 34 1015.6
20200229060527 25 100 1.6 11.3 0.00 0.00 0.00 34 1015.5
20200229060044 25 355 3.2 11.3 0.00 0.00 0.00 34 1015.6
20200229055525 25 112 3.2 12.9 0.00 0.00 0.00 34 1015.5
20200229055027 25 106 1.6 12.9 0.00 0.00 0.00 34 1015.5
20200229054609 25 84 0.0 12.9 0.00 0.00 0.00 34 1015.4
20200229054025 25 135 3.2 12.9 0.00 0.00 0.00 33 1015.5
20200229053525 25 259 0.0 8.0 0.00 0.00 0.00 34 1015.4
20200229053041 26 119 3.2 12.9 0.00 0.00 0.00 33 1015.4
20200229052538 26 183 0.0 12.9 0.00 0.00 0.00 33 1015.3
20200229052026 26 85 0.0 14.5 0.00 0.00 0.00 33 1015.3
20200229051528 26 218 0.0 14.5 0.00 0.00 0.00 33 1015.2
20200229051023 26 98 3.2 14.5 0.00 0.00 0.00 32 1015.2
20200229050525 26 103 3.2 12.9 0.00 0.00 0.00 32 1015.0
20200229050029 26 37 3.2 19.3 0.00 0.00 0.00 32 1015.0
20200229045545 26 192 1.6 9.7 0.00 0.00 0.00 32 1014.9
20200229045022 26 124 1.6 14.5 0.00 0.00 0.00 32 1014.9
20200229044604 27 124 3.2 12.9 0.00 0.00 0.00 32 1014.8
20200229044034 27 357 1.6 11.3 0.00 0.00 0.00 32 1014.7
20200229043548 26 151 4.8 11.3 0.00 0.00 0.00 33 1014.7
20200229043040 26 147 1.6 8.0 0.00 0.00 0.00 35 1014.6
20200229042523 26 162 0.0 0.0 0.00 0.00 0.00 41 1014.5
20200229042028 26 165 0.0 0.0 0.00 0.00 0.00 41 1014.5
20200229041531 25 143 0.0 0.0 0.00 0.00 0.00 39 1014.5
20200229041025 26 142 0.0 0.0 0.00 0.00 0.00 39 1014.5
20200229040536 26 142 0.0 4.8 0.00 0.00 0.00 38 1014.4
20200229040054 26 163 1.6 4.8 0.00 0.00 0.00 38 1014.4
20200229035523 26 143 0.0 1.6 0.00 0.00 0.00 38 1014.4
20200229035038 26 126 0.0 6.4 0.00 0.00 0.00 38 1014.3
20200229034539 26 153 1.6 6.4 0.00 0.00 0.00 38 1014.1
20200229034031 26 147 1.6 6.4 0.00 0.00 0.00 38 1014.1
20200229033520 26 150 1.6 4.8 0.00 0.00 0.00 37 1013.8
20200229033021 26 154 1.6 3.2 0.00 0.00 0.00 36 1013.7
20200229032519 27 134 0.0 1.6 0.00 0.00 0.00 37 1013.6
20200229032018 27 134 0.0 1.6 0.00 0.00 0.00 36 1013.6
20200229031536 26 267 0.0 9.7 0.00 0.00 0.00 38 1013.3
20200229031027 26 323 1.6 9.7 0.00 0.00 0.00 38 1013.3
20200229030528 26 344 1.6 4.8 0.00 0.00 0.00 38 1013.2
20200229030115 26 55 0.0 1.6 0.00 0.00 0.00 38 1013.2
20200229025525 26 15 0.0 1.6 0.00 0.00 0.00 38 1013.0
20200229025030 26 179 0.0 8.0 0.00 0.00 0.00 38 1012.9
20200229024528 26 131 1.6 8.0 0.00 0.00 0.00 37 1012.8
20200229024021 26 190 0.0 1.6 0.00 0.00 0.00 35 1012.6
20200229023525 26 154 0.0 0.0 0.00 0.00 0.00 35 1012.4
20200229023024 26 155 0.0 0.0 0.00 0.00 0.00 35 1012.3
20200229022526 27 154 0.0 0.0 0.00 0.00 0.00 35 1012.2
20200229022016 27 155 0.0 0.0 0.00 0.00 0.00 34 1012.2
20200229021619 27 155 0.0 0.0 0.00 0.00 0.00 34 1012.0
20200229021016 27 155 0.0 0.0 0.00 0.00 0.00 34 1011.9
20200229020523 27 155 0.0 0.0 0.00 0.00 0.00 34 1011.8
20200229020020 27 155 0.0 1.6 0.00 0.00 0.00 33 1011.7
20200229015538 27 132 0.0 1.6 0.00 0.00 0.00 33 1011.7
20200229015015 27 60 0.0 1.6 0.00 0.00 0.00 32 1011.6
20200229014536 28 139 0.0 1.6 0.00 0.00 0.00 32 1011.5
20200229014014 28 129 0.0 1.6 0.00 0.00 0.00 33 1011.4
20200229013514 28 66 0.0 3.2 0.00 0.00 0.00 32 1011.3
20200229013029 28 82 0.0 1.6 0.00 0.00 0.00 31 1011.1
20200229012519 29 162 0.0 1.6 0.00 0.00 0.00 32 1011.0
20200229012012 29 125 0.0 1.6 0.00 0.00 0.00 31 1011.0
20200229011533 29 133 0.0 1.6 0.00 0.00 0.00 31 1010.8
20200229011013 30 236 0.0 1.6 0.00 0.00 0.00 31 1010.7
20200229010513 30 245 0.0 0.0 0.00 0.00 0.00 31 1010.7
20200229010033 30 245 0.0 0.0 0.00 0.00 0.00 30 1010.6
20200229005513 30 245 0.0 1.6 0.00 0.00 0.00 29 1010.6
20200229005014 30 245 0.0 1.6 0.00 0.00 0.00 29 1010.6
20200229004514 31 245 0.0 1.6 0.00 0.00 0.00 29 1010.5
20200229004011 31 245 0.0 1.6 0.00 0.00 0.00 29 1010.5
20200229003511 31 243 0.0 1.6 0.00 0.00 0.00 28 1010.5
20200229003037 32 243 0.0 1.6 0.00 0.00 0.00 27 1010.4
20200229002511 32 243 0.0 4.8 0.00 0.00 0.00 27 1010.4
20200229002011 32 242 0.0 4.8 0.00 0.00 0.00 26 1010.4
20200229001552 32 231 0.0 4.8 0.00 0.00 0.00 26 1010.3
20200229001016 33 195 0.0 4.8 0.00 0.00 0.00 25 1010.3
20200229000513 33 219 0.0 4.8 0.00 0.00 0.00 24 1010.3
20200229000042 33 219 0.0 4.8 0.00 0.00 0.00 24 1010.2
20200228235511 33 214 0.0 4.8 0.00 0.00 0.00 24 1010.2
20200228235009 33 13 0.0 4.8 0.00 0.00 0.00 24 1010.2
20200228234525 33 282 0.0 3.2 0.00 0.00 0.00 24 1010.2
20200228234009 33 68 0.0 4.8 0.00 0.00 0.00 23 1010.1
20200228233508 33 94 0.0 8.0 0.00 0.00 0.00 23 1010.1
20200228233012 33 183 3.2 6.4 0.00 0.00 0.00 23 1010.0
20200228232513 34 63 1.6 4.8 0.00 0.00 0.00 22 1010.0
20200228232025 34 158 0.0 4.8 0.00 0.00 0.00 22 1010.0
20200228231520 34 135 0.0 3.2 0.00 0.00 0.00 23 1010.0
20200228231011 33 309 0.0 3.2 0.00 0.00 0.00 23 1010.0
20200228230511 33 129 0.0 1.6 0.00 0.00 0.00 23 1010.1
20200228230005 33 84 0.0 3.2 0.00 0.00 0.00 24 1010.1
20200228225506 33 87 0.0 9.7 0.00 0.00 0.00 23 1010.1
20200228225010 33 238 0.0 12.9 0.00 0.00 0.00 23 1010.2
20200228224522 33 198 3.2 16.1 0.00 0.00 0.00 24 1010.2
20200228224003 33 207 1.6 16.1 0.00 0.00 0.00 23 1010.2
20200228223504 33 223 3.2 16.1 0.00 0.00 0.00 24 1010.2
20200228223002 33 228 6.4 16.1 0.00 0.00 0.00 23 1010.3
20200228222502 33 179 3.2 11.3 0.00 0.00 0.00 24 1010.3
20200228222003 33 129 0.0 6.4 0.00 0.00 0.00 24 1010.3
20200228221827 33 221 0.0 8.0 0.00 0.00 0.00 25 1010.3
20200228221501 33 331 1.6 8.0 0.00 0.00 0.00 25 1010.3
20200228221103 33 32 0.0 8.0 0.00 0.00 0.00 24 1010.3
20200228221004 33 328 0.0 6.4 0.00 0.00 0.00 24 1010.4
20200228220559 33 338 0.0 6.4 0.00 0.00 0.00 24 1010.4
20200228220206 33 292 3.2 9.7 0.00 0.00 0.00 23 1010.5
20200228215557 33 232 1.6 12.9 0.00 0.00 0.00 25 1010.5
20200228215100 33 335 1.6 12.9 0.00 0.00 0.00 24 1010.5
20200228214639 33 207 3.2 14.5 0.00 0.00 0.00 24 1010.7
20200228214102 33 240 8.0 14.5 0.00 0.00 0.00 24 1010.7
20200228213553 33 198 4.8 14.5 0.00 0.00 0.00 24 1010.9
20200228213148 33 335 0.0 14.5 0.00 0.00 0.00 24 1010.9
20200228212552 33 191 0.0 6.4 0.00 0.00 0.00 24 1010.9
20200228212050 33 148 1.6 6.4 0.00 0.00 0.00 24 1011.0
20200228211743 33 138 0.0 8.0 0.00 0.00 0.00 24 1011.1
20200228211057 33 139 1.6 6.4 0.00 0.00 0.00 24 1011.2
20200228210546 32 178 0.0 4.8 0.00 0.00 0.00 25 1011.3
20200228210119 32 304 0.0 12.9 0.00 0.00 0.00 25 1011.5
20200228205549 32 200 4.8 12.9 0.00 0.00 0.00 25 1011.5
20200228205047 32 144 1.6 9.7 0.00 0.00 0.00 25 1011.7
20200228204630 32 292 0.0 8.0 0.00 0.00 0.00 26 1011.8
20200228204042 31 210 3.2 9.7 0.00 0.00 0.00 26 1011.9
20200228203539 32 238 0.0 12.9 0.00 0.00 0.00 26 1012.0
20200228203124 32 124 1.6 9.7 0.00 0.00 0.00 26 1012.1
20200228202550 32 226 3.2 14.5 0.00 0.00 0.00 26 1012.2
20200228202043 32 136 3.2 14.5 0.00 0.00 0.00 26 1012.3
20200228201557 32 146 4.8 12.9 0.00 0.00 0.00 26 1012.4
20200228201034 32 124 3.2 9.7 0.00 0.00 0.00 26 1012.5
20200228200535 32 158 0.0 12.9 0.00 0.00 0.00 27 1012.6
20200228200040 32 167 6.4 12.9 0.00 0.00 0.00 27 1012.7
20200228195530 31 155 4.8 8.0 0.00 0.00 0.00 27 1012.8
20200228195036 31 256 0.0 8.0 0.00 0.00 0.00 28 1012.8
20200228194629 31 356 1.6 6.4 0.00 0.00 0.00 27 1012.9
20200228194028 31 73 1.6 12.9 0.00 0.00 0.00 28 1013.1
20200228193531 31 160 1.6 19.3 0.00 0.00 0.00 28 1013.2
20200228193028 31 175 11.3 19.3 0.00 0.00 0.00 28 1013.3
20200228192524 31 269 0.0 9.7 0.00 0.00 0.00 29 1013.2
20200228192023 31 131 1.6 11.3 0.00 0.00 0.00 29 1013.4
20200228191607 31 249 3.2 12.9 0.00 0.00 0.00 29 1013.6
20200228191020 31 186 3.2 12.9 0.00 0.00 0.00 29 1013.8
20200228190519 31 101 4.8 11.3 0.00 0.00 0.00 29 1013.8
20200228190022 30 146 0.0 11.3 0.00 0.00 0.00 30 1013.9
20200228185539 30 220 6.4 14.5 0.00 0.00 0.00 30 1014.1
20200228185016 31 142 6.4 12.9 0.00 0.00 0.00 30 1014.2
20200228184553 30 153 3.2 9.7 0.00 0.00 0.00 30 1014.4
20200228184038 30 96 0.0 12.9 0.00 0.00 0.00 32 1014.5
20200228183518 30 128 3.2 9.7 0.00 0.00 0.00 31 1014.6
20200228183016 30 136 0.0 11.3 0.00 0.00 0.00 32 1014.8
20200228182508 30 146 3.2 11.3 0.00 0.00 0.00 32 1014.9
20200228182011 29 190 6.4 16.1 0.00 0.00 0.00 33 1015.1
20200228181506 29 77 6.4 14.5 0.00 0.00 0.00 33 1015.2
20200228181009 29 200 4.8 11.3 0.00 0.00 0.00 33 1015.4
20200228180516 29 206 3.2 16.1 0.00 0.00 0.00 34 1015.4
20200228180011 29 151 6.4 16.1 0.00 0.00 0.00 34 1015.6
20200228175503 29 149 4.8 14.5 0.00 0.00 0.00 34 1015.8
20200228175002 28 141 6.4 14.5 0.00 0.00 0.00 34 1015.9
20200228174508 28 119 6.4 14.5 0.00 0.00 0.00 34 1016.0
20200228174114 28 186 3.2 14.5 0.00 0.00 0.00 36 1016.2
20200228173605 28 224 8.0 14.5 0.00 0.00 0.00 35 1016.3
20200228173200 28 186 4.8 16.1 0.00 0.00 0.00 35 1016.5
20200228172559 28 185 9.7 16.1 0.00 0.00 0.00 36 1016.5
20200228172100 28 226 4.8 14.5 0.00 0.00 0.00 36 1016.7
20200228171621 28 148 6.4 14.5 0.00 0.00 0.00 36 1016.7
20200228171057 28 186 6.4 12.9 0.00 0.00 0.00 36 1016.8
20200228170555 28 167 3.2 14.5 0.00 0.00 0.00 36 1016.9
20200228170125 28 152 6.4 14.5 0.00 0.00 0.00 36 1017.0
20200228165556 28 186 4.8 14.5 0.00 0.00 0.00 36 1017.0
20200228164621 27 153 3.2 16.1 0.00 0.00 0.00 35 1017.2
20200228164053 27 115 9.7 16.1 0.00 0.00 0.00 34 1017.3
20200228163629 27 163 6.4 16.1 0.00 0.00 0.00 34 1017.3
20200228163121 27 197 4.8 16.1 0.00 0.00 0.00 34 1017.4
20200228162551 27 224 4.8 12.9 0.00 0.00 0.00 34 1017.4
20200228162050 27 124 0.0 8.0 0.00 0.00 0.00 35 1017.4
20200228161717 27 167 1.6 11.3 0.00 0.00 0.00 35 1017.4
20200228161047 26 254 3.2 11.3 0.00 0.00 0.00 36 1017.4
20200228160557 26 193 4.8 14.5 0.00 0.00 0.00 35 1017.4
20200228160114 26 186 4.8 14.5 0.00 0.00 0.00 36 1017.3
20200228155601 26 143 4.8 14.5 0.00 0.00 0.00 36 1017.3
20200228155043 26 179 6.4 14.5 0.00 0.00 0.00 36 1017.3
20200228154702 26 143 6.4 14.5 0.00 0.00 0.00 37 1017.2
20200228154058 26 146 4.8 14.5 0.00 0.00 0.00 37 1017.2
20200228153542 25 131 6.4 14.5 0.00 0.00 0.00 37 1017.1
20200228153132 25 245 3.2 14.5 0.00 0.00 0.00 38 1017.1
20200228152551 25 150 6.4 14.5 0.00 0.00 0.00 38 1017.1
20200228152035 25 84 1.6 12.9 0.00 0.00 0.00 39 1017.1
20200228151559 24 187 1.6 9.7 0.00 0.00 0.00 41 1017.1
20200228151034 23 129 0.0 8.0 0.00 0.00 0.00 44 1017.1
20200228150535 22 130 1.6 8.0 0.00 0.00 0.00 47 1017.0
20200228150059 21 147 0.0 4.8 0.00 0.00 0.00 53 1017.0
20200228145529 21 197 0.0 0.0 0.00 0.00 0.00 55 1017.0
20200228145037 20 196 0.0 0.0 0.00 0.00 0.00 56 1016.9
20200228144536 20 192 0.0 0.0 0.00 0.00 0.00 60 1016.9
20200228144025 20 192 0.0 0.0 0.00 0.00 0.00 63 1016.8
20200228143525 19 191 0.0 0.0 0.00 0.00 0.00 64 1016.8
20200228143030 19 170 0.0 0.0 0.00 0.00 0.00 64 1016.7
20200228142524 18 149 0.0 0.0 0.00 0.00 0.00 65 1016.7
20200228142027 18 149 0.0 0.0 0.00 0.00 0.00 66 1016.7
20200228141022 17 149 0.0 0.0 0.00 0.00 0.00 67 1016.6
20200228140526 17 149 0.0 0.0 0.00 0.00 0.00 69 1016.5
20200228140039 17 149 0.0 0.0 0.00 0.00 0.00 69 1016.4
20200228135524 17 149 0.0 0.0 0.00 0.00 0.00 69 1016.3
20200228135019 17 149 0.0 0.0 0.00 0.00 0.00 69 1016.3
20200228134549 17 149 0.0 0.0 0.00 0.00 0.00 69 1016.3
20200228134017 -17 0.0 0.0 0.00 0.00 0.00 1016.3
20200228133539 -17 0.0 0.0 0.00 0.00 0.00 1016.2
20200228133033 -17 0.0 0.0 0.00 0.00 0.00 1016.1
20200228132531 -17 0.0 0.0 0.00 0.00 0.00 1016.0
20200228132011 -17 0.0 0.0 0.00 0.00 0.00 1016.0
20200228131531 -17 0.0 0.0 0.00 0.00 0.00 1016.0
20200228131008 -17 0.0 0.0 0.00 0.00 0.00 1015.8
20200228130511 -17 0.0 0.0 0.00 0.00 0.00 1015.8
20200228130018 -17 0.0 0.0 0.00 0.00 0.00 1015.7
20200228125514 -17 0.0 0.0 0.00 0.00 0.00 1015.6
20200228125003 -17 0.0 0.0 0.00 0.00 0.00 1015.6
20200228124501 -17 0.0 0.0 0.00 0.00 0.00 1015.5
20200228124107 -17 0.0 0.0 0.00 0.00 0.00 1015.5
20200228123559 -17 0.0 0.0 0.00 0.00 0.00 1015.4
20200228123223 -17 0.0 0.0 0.00 0.00 0.00 1015.3
20200228122601 -17 0.0 0.0 0.00 0.00 0.00 1015.2
20200228122054 -17 0.0 0.0 0.00 0.00 0.00 1015.2
20200228121657 -17 0.0 0.0 0.00 0.00 0.00 1015.1
20200228121107 -17 0.0 0.0 0.00 0.00 0.00 1015.0
20200228120557 -17 0.0 0.0 0.00 0.00 0.00 1015.0
20200228120148 -17 0.0 0.0 0.00 0.00 0.00 1014.9
20200228115552 -17 0.0 0.0 0.00 0.00 0.00 1014.8
20200228115054 -17 0.0 0.0 0.00 0.00 0.00 1014.8
20200228114654 -17 0.0 0.0 0.00 0.00 0.00 1014.7
20200228114109 -17 0.0 0.0 0.00 0.00 0.00 1014.7
20200228113541 -17 0.0 0.0 0.00 0.00 0.00 1014.6
20200228113051 -17 0.0 0.0 0.00 0.00 0.00 1014.6
20200228112543 -17 0.0 0.0 0.00 0.00 0.00 1014.6
20200228112038 -17 0.0 0.0 0.00 0.00 0.00 1014.5
20200228111539 -17 0.0 0.0 0.00 0.00 0.00 1014.6
20200228111048 -17 0.0 0.0 0.00 0.00 0.00 1014.5
20200228110532 -17 0.0 0.0 0.00 0.00 0.00 1014.5
20200228110048 -17 0.0 0.0 0.00 0.00 0.00 1014.5
20200228105539 -17 0.0 0.0 0.00 0.00 0.00 1014.5
20200228105033 -17 0.0 0.0 0.00 0.00 0.00 1014.4
20200228104536 -17 0.0 0.0 0.00 0.00 0.00 1014.4
20200228104043 -17 0.0 0.0 0.00 0.00 0.00 1014.4
20200228103535 -17 0.0 0.0 0.00 0.00 0.00 1014.4
20200228103045 -17 0.0 0.0 0.00 0.00 0.00 1014.4
20200228102521 -17 0.0 0.0 0.00 0.00 0.00 1014.3
20200228102020 -17 0.0 0.0 0.00 0.00 0.00 1014.4
20200228101522 -17 0.0 0.0 0.00 0.00 0.00 1014.4
20200228101022 -17 0.0 0.0 0.00 0.00 0.00 1014.4
20200228100516 17 161 0.0 0.0 0.00 0.00 0.00 63 1014.4
20200228100032 17 161 0.0 0.0 0.00 0.00 0.00 63 1014.3
20200228095514 17 79 0.0 0.0 0.00 0.00 0.00 63 1014.3
20200228095013 18 79 0.0 1.6 0.00 0.00 0.00 62 1014.3
20200228094514 18 181 0.0 0.0 0.00 0.00 0.00 61 1014.3
20200228094011 18 184 0.0 0.0 0.00 0.00 0.00 61 1014.3
20200228093529 18 179 0.0 0.0 0.00 0.00 0.00 61 1014.3
20200228093051 18 179 0.0 0.0 0.00 0.00 0.00 60 1014.2
20200228092535 18 179 0.0 0.0 0.00 0.00 0.00 59 1014.2
20200228092012 18 180 0.0 0.0 0.00 0.00 0.00 59 1014.2
20200228091531 18 101 0.0 0.0 0.00 0.00 0.00 59 1014.2